Location: Ettringen
(48.1054°N, 10.6545°E)
Time: 21:51:39
(UTC+00:00)

Cosmos 2016 Rocket - Pass Details

Date: 18 November 2025
Orbit: 947 x 999 km, 83.0° (Epoch: 05 December)

Event Time Altitude Azimuth Distance (km) Brightness Sun altitude
Rises 16:22:59 0° 195° (SSW) 3,676 7.6 -8.0°
Reaches altitude 10° 16:25:29 10° 198° (SSW) 2,738 6.9 -8.4°
Maximum altitude 16:31:46 69° 281° (W) 1,062 4.4 -9.4°
Drops below altitude 10° 16:38:08 10° 5° (N) 2,778 6.2 -10.4°
Sets 16:40:42 0° 8° (N) 3,733 6.8 -10.8°
